Printer-friendly version

IAU Minor Planet Center

Minor Planet Center

MPEC 2006-A43 : 2006 AG4

The following Minor Planet Electronic Circular may be linked-to from your own Web pages, but must not otherwise be redistributed electronically.


Read MPEC 2006-A42 Read MPEC 2006-A44


M.P.E.C. 2006-A43                                Issued 2006 Jan.  9, 12:47 UT

     The Minor Planet Electronic Circulars contain information on unusual
         minor planets and routine data on comets.  They are published
   on behalf of Commission 20 of the International Astronomical Union by the
          Minor Planet Center, Smithsonian Astrophysical Observatory,
                          Cambridge, MA 02138, U.S.A.

                  Supported in part by the Brinson Foundation
                  Supported in part by the TABASGO Foundation
             Prepared using the Tamkin Foundation Computer Network

                              MPC@CFA.HARVARD.EDU
          URL http://cfa-www.harvard.edu/iau/mpc.html  ISSN 1523-6714

                                   2006 AG4

Observations:
     K06A04G* C2006 01 07.33634 08 06 35.42 +20 59 13.0          21.1 V EA043G96
     K06A04G  C2006 01 07.35012 08 06 36.43 +20 59 30.0          20.9 V EA043G96
     K06A04G  C2006 01 07.35697 08 06 36.82 +20 59 39.4          21.6 V EA043G96
     K06A04G  C2006 01 07.37199 08 06 37.87 +20 59 58.8          21.4 V EA043G96
     K06A04G  C2006 01 07.38000 08 06 38.48 +21 00 09.5          21.5 V EA043G96
     K06A04G  C2006 01 07.38797 08 06 39.02 +21 00 19.8          21.9 V EA043G96
     K06A04G  C2006 01 07.39594 08 06 39.63 +21 00 29.5          20.9 V EA043G96
     K06A04G  C2006 01 07.47103 08 06 45.10 +21 02 06.0                 EA043G96
     K06A04G  C2006 01 07.47362 08 06 45.22 +21 02 08.8                 EA043G96
     K06A04G  C2006 01 07.47631 08 06 45.46 +21 02 12.5          21.0 V EA043G96
     K06A04G  C2006 01 07.47890 08 06 45.69 +21 02 16.4          21.0 V EA043G96
     K06A04G  C2006 01 08.36224 08 08 00.13 +21 21 24.6          21.1 V EA043G96
     K06A04G  C2006 01 08.36662 08 08 00.45 +21 21 30.8          21.1 V EA043G96
     K06A04G  C2006 01 08.37101 08 08 00.70 +21 21 36.6          21.4 V EA043G96
     K06A04G  C2006 01 08.37541 08 08 01.06 +21 21 42.1          21.2 V EA043G96
     K06A04G  C2006 01 09.26795 08 09 14.12 +21 40 41.4                 EA043291
     K06A04G HC2006 01 09.27229 08 09 14.46 +21 40 47.5                 EA043291
     K06A04G  C2006 01 09.27654 08 09 14.69 +21 40 52.4                 EA043291

Observer details:
291 LPL/Spacewatch II.  Observer A. S. Descour.  1.8-m f/2.7 reflector + CCD.
G96 Mt. Lemmon Survey.  Observer E. J. Christensen.  Measurers E. C. Beshore,
    E. J. Christensen, G. J. Garradd, A. D. Grauer, R. E. Hill, R. A. Kowalski,
    S. M. Larson, R. H. McNaught.  1.5-m reflector + CCD.

Orbital elements:
2006 AG4                                                 Earth MOID = 0.2132 AU
Epoch 2006 Mar. 6.0 TT = JDT 2453800.5                  MPC
M  19.97517              (2000.0)            P               Q
n   0.24317383     Peri.  339.01445     +0.05298121     -0.99423973
a   2.5420933      Node   107.85460     +0.92957284     +0.01501947
e   0.5301211      Incl.    5.61726     +0.36481135     +0.10612153
P   4.05           H   23.2           G   0.15           U   8
Residuals in seconds of arc
060107 G96  0.4+  0.5+    060107 G96  0.1+  0.6-    060108 G96  0.2+  0.0
060107 G96  0.9+  0.5-    060107 G96  0.4+  0.3+    060108 G96  0.5-  0.2+
060107 G96  0.4-  0.1-    060107 G96  0.6-  0.2-    060108 G96  0.4+  0.1+
060107 G96  0.7-  0.3-    060107 G96  0.1-  0.1+    060109 291  0.2-  0.1-
060107 G96  0.1-  0.0     060107 G96  0.4+  0.8+    060109 291  0.5+  0.4+
060107 G96  0.5-  0.0     060108 G96  0.1-  0.6-    060109 291  0.3-  0.2-

Ephemeris:
2006 AG4                 a,e,i = 2.54, 0.53, 6                   q = 1.1945
Date    TT    R. A. (2000) Decl.     Delta      r     Elong.  Phase     V
2006 01 05    08 03.17   +20 07.5    0.244    1.221   165.7    11.5    21.3
2006 01 15    08 16.09   +23 34.6    0.267    1.249   172.7     5.8    21.3
2006 01 25    08 25.37   +26 11.4    0.304    1.286   172.8     5.5    21.6
2006 02 04    08 32.78   +27 48.4    0.353    1.331   165.7    10.5    22.2
2006 02 14    08 40.11   +28 28.9    0.416    1.382   157.8    15.7    22.9

Timothy B. Spahr             (C) Copyright 2006 MPC           M.P.E.C. 2006-A43

Read MPEC 2006-A42 Read MPEC 2006-A44


Our Web policy. Index to the CBAT/MPC/ICQ pages.


Valid HTML 4.01!